Torna al catalogo

CZ-6A DEB

AttivoSSO
NORAD 55544·DEBRIS·🇨🇳 China

Lanciato Nov 11, 2022 da Taiyuan Satellite Launch Center

Loading…

Prossimi Passaggi (prossime 24 ore)

TLE

AggiornatoSource: Space-Track

Epoca: Sep 14, 2026, 11:49 UTC

1 55544U 22151YS  26257.49257963  .00000792  00000-0  48086-3 0  9998
2 55544  98.9570 264.2364 0079438 126.5018 234.3502 14.07605350191397

Traccia CZ-6A DEB in tempo reale con AllMySat

Download on the App Store